Weather History for KCDJ - January, 2013

Change the Weather History Date:

Wednesday, January 9, 2013

  Actual Average (KIRK) Record (KIRK)
Temperature  
Mean Temperature 40 °F 26 °F  
Max Temperature 54 °F 35 °F - ()
Min Temperature 26 °F 17 °F - ()
Degree Days  
Heating Degree Days 25 39  
Month to date heating degree days 351  
Since 1 July heating degree days 2694  
Cooling Degree Days 0 0  
Month to date cooling degree days 0  
Year to date cooling degree days 0  
Moisture  
Dew Point 27 °F    
Average Humidity 67    
Maximum Humidity 89    
Minimum Humidity 38    
Precipitation  
Precipitation 0.00 in 0.02 in - ()
Month to date precipitation 0.28  
Year to date precipitation 0.28  
Sea Level Pressure  
Sea Level Pressure 30.39 in    
Wind  
Wind Speed 1 mph (East)    
Max Wind Speed 7 mph    
Max Gust Speed -    
T = Trace of Precipitation, MM = Missing Value Source: NWS Daily Summary

Daily Weather History Graph

Daily Weather History Graph

Search for Another Location

Airport or City:

Trip Planner

Search our weather history database for the weather conditions in past years. The results will help you decide how hot, cold, wet, or windy it might be!

Date:

Astronomy

Jan. 09, 2013 Rise Set
Actual Time 7:35 AM CST 5:08 PM CST
Civil Twilight 7:05 AM CST 5:38 PM CST
Nautical Twilight 6:31 AM CST 6:11 PM CST
Astronomical Twilight 5:59 AM CST 6:44 PM CST
Moon 5:15 AM CST (1/9) 3:10 PM CST (1/9)
Length of Visible Light 10h 32m
Length of Day
9h 32m
Waning Crescent, 6% of the Moon is Illuminated
Jan 9
Waning Crescent
Jan 11
New
Jan 18
First Quarter
Jan 26
Full
Feb 3
Last Quarter

Hourly Weather History & Observations

Time (CST) Temp. Windchill Dew Point Humidity Pressure Visibility Wind Dir Wind Speed Gust Speed Precip Events Conditions
12:52 AM 37.9 °F - 28.9 °F 70% 30.22 in - Calm Calm - N/A   Unknown
1:52 AM 35.1 °F - 28.9 °F 78% 30.24 in - Calm Calm - N/A   Unknown
2:52 AM 34.0 °F - 28.0 °F 79% 30.27 in - Calm Calm - N/A   Unknown
3:52 AM 32.0 °F - 27.0 °F 82% 30.30 in - Calm Calm - N/A   Unknown
4:52 AM 32.0 °F - 27.0 °F 82% 30.32 in - Calm Calm - N/A   Unknown
5:52 AM 27.0 °F - 24.1 °F 89% 30.33 in - Calm Calm - N/A   Unknown
6:52 AM 26.1 °F 21.9 °F 21.9 °F 84% 30.36 in - South 3.5 mph - N/A   Unknown
7:52 AM 26.1 °F - 23.0 °F 88% 30.39 in - Calm Calm - N/A   Unknown
8:52 AM 27.0 °F 23.0 °F 24.1 °F 89% 30.42 in - SSW 3.5 mph - N/A   Unknown
9:52 AM 37.0 °F - 30.0 °F 76% 30.46 in - Calm Calm - N/A   Unknown
10:52 AM 43.0 °F 39.5 °F 30.9 °F 62% 30.47 in - North 5.8 mph - N/A   Unknown
11:52 AM 48.0 °F - 33.1 °F 56% 30.44 in - North 4.6 mph - N/A   Unknown
12:52 PM 51.1 °F - 34.0 °F 52% 30.42 in - Variable 3.5 mph - N/A   Unknown
1:52 PM 53.1 °F - 32.0 °F 45% 30.41 in - NE 6.9 mph - N/A   Unknown
2:52 PM 54.0 °F - 28.9 °F 38% 30.41 in - NNE 5.8 mph - N/A   Unknown
4:52 PM 50.0 °F - 26.1 °F 39% 30.43 in - Calm Calm - N/A   Unknown
5:52 PM 37.9 °F - 28.0 °F 68% 30.46 in - Calm Calm - N/A   Unknown
6:52 PM 37.0 °F - 26.1 °F 65% 30.47 in - Calm Calm - N/A   Unknown
7:52 PM 39.0 °F - 24.1 °F 55% 30.46 in - Calm Calm - N/A   Unknown
8:52 PM 37.0 °F - 23.0 °F 57% 30.47 in - Calm Calm - N/A   Unknown
9:52 PM 39.0 °F 36.8 °F 25.0 °F 57% 30.46 in - SE 3.5 mph - N/A   Unknown
10:52 PM 39.0 °F 36.8 °F 26.1 °F 60% 30.44 in - SE 3.5 mph - N/A   Unknown
11:52 PM 36.0 °F 33.3 °F 27.0 °F 70% 30.43 in - ESE 3.5 mph - N/A   Unknown